Location: Poughquag
(41.6090°N, 73.6820°W)
Time: 02:36:38
(UTC-04:00)

OTV 5 (USA 277) - Visible Passes

Search period start: 17 June 2019 00:00
Search period end: 27 June 2019 00:00
Orbit: 310 x 325 km, 54.5° (Epoch: 08 May)

Date Brightness Start Highest point End Pass type
(mag) Time Alt. Az. Time Alt. Az. Time Alt. Az.
17 Jun ? 00:27:28 11° NE 00:27:28 11° NE 00:27:35 10° NE visible
17 Jun ? 01:59:28 10° NNW 01:59:46 10° NNW 02:00:03 10° NNW visible
18 Jun ? 00:40:48 18° N 00:40:48 18° N 00:42:00 10° NNE visible
19 Jun ? 00:53:48 11° NW 00:54:45 13° NNW 00:56:06 10° N visible
19 Jun ? 04:05:23 10° NNE 04:05:41 10° NNE 04:06:00 10° NNE visible
19 Jun ? 23:35:21 29° N 23:35:21 29° N 23:37:23 10° NNE visible
20 Jun ? 04:18:53 10° NNW 04:20:46 16° NNE 04:22:38 10° ENE visible
20 Jun ? 22:12:33 10° SW 22:15:14 52° SE 22:17:57 10° ENE visible
20 Jun ? 23:47:55 10° WNW 23:49:47 16° NNW 23:51:39 10° NNE visible
21 Jun ? 04:33:10 10° NNW 04:35:43 32° NE 04:38:13 10° E visible
21 Jun ? 22:27:16 10° WSW 22:29:58 49° NW 22:32:40 10° NE visible
22 Jun ? 00:04:37 10° NNW 00:04:52 10° NNW 00:05:05 10° NNW visible
22 Jun ? 03:14:26 10° N 03:15:48 13° NNE 03:17:09 10° NE visible
22 Jun ? 21:08:00 10° SSW 21:10:28 30° SE 21:12:57 10° ENE visible
22 Jun ? 22:42:36 10° W 22:44:51 22° NNW 22:47:06 10° NNE visible
23 Jun ? 03:28:32 10° NNW 03:30:48 22° NNE 03:33:03 10° E visible
23 Jun ? 21:22:23 10° SW 21:25:07 85° NW 21:27:54 10° NE visible
23 Jun ? 22:58:33 10° NW 22:59:51 13° NNW 23:01:10 10° N visible
24 Jun ? 02:10:23 10° N 02:10:47 10° NNE 02:11:12 10° NNE visible
24 Jun ? 03:42:58 10° NW 03:45:41 51° NE 03:48:22 10° ESE visible
24 Jun ? 21:37:25 10° W 21:39:56 31° NW 21:42:28 10° NNE visible
25 Jun ? 02:23:58 10° NNW 02:25:52 17° NNE 02:27:45 10° ENE visible
25 Jun ? 03:57:43 10° WNW 04:00:24 49° SW 04:03:03 10° SSE visible
25 Jun ? 21:53:02 10° WNW 21:54:53 16° NNW 21:56:44 10° NNE visible
26 Jun ? 02:38:15 10° NNW 02:40:48 32° NE 02:43:14 11° E visible
26 Jun ? 04:13:03 10° W 04:13:32 12° W 04:13:32 12° W visible
26 Jun ? 22:09:52 10° NNW 22:09:57 10° NNW 22:10:02 10° NNW visible
